BADBUCHAU Weather Reports


time (UTC)temp
C
wind
direction
speed
KPH
gust
KPH
rain 1hr
cm
rain 24hr
cm
rain mn
cm
humidity
%
barometer
mb
20260504160210 21 294 6.4 0.0 0.00 0.00 0.00 42 1009.9
20260504150210 22 45 6.4 0.0 0.00 0.00 0.00 38 1009.8
20260504140209 22 57 11.3 0.0 0.00 0.00 0.00 38 1010.2
20260504130215 22 161 20.9 0.0 0.00 0.00 0.00 41 1010.8
20260504120210 20 17 12.9 0.0 0.00 0.00 0.00 44 1011.1
20260504110210 20 5 11.3 0.0 0.00 0.00 0.00 43 1011.5
20260504100212 20 9 16.1 0.0 0.00 0.00 0.00 40 1012.0
20260504080210 18 112 4.8 0.0 0.00 0.00 0.00 47 1013.0
20260504070211 15 265 0.0 0.0 0.00 0.00 0.00 62 1013.0
20260504060212 11 265 0.0 0.0 0.00 0.00 0.00 78 1013.2
20260504050210 8 228 0.0 0.0 0.00 0.00 0.00 83 1013.5
20260504043211 7 228 0.0 0.0 0.00 0.00 0.00 82 1013.3
20260504040211 9 228 0.0 0.0 0.00 0.00 0.00 76 1013.3
20260504033211 9 228 4.8 0.0 0.00 0.00 0.00 77 1013.7
20260504030212 9 228 0.0 0.0 0.00 0.00 0.00 77 1013.5
20260504023211 9 228 4.8 0.0 0.00 0.00 0.00 78 1013.6
20260504020212 10 140 0.0 0.0 0.00 0.00 0.00 75 1013.4
20260504013211 11 112 9.7 0.0 0.00 0.00 0.00 70 1013.4
20260504010211 11 171 0.0 0.0 0.00 0.00 0.00 69 1013.3
20260504003210 12 171 3.2 0.0 0.00 0.00 0.00 65 1013.6
20260504000208 12 171 8.0 0.0 0.00 0.00 0.00 61 1013.8
20260503233209 13 253 0.0 0.0 0.00 0.00 0.00 59 1013.8
20260503230209 13 253 4.8 0.0 0.00 0.00 0.00 55 1014.0
20260503223210 13 253 6.4 0.0 0.00 0.00 0.00 56 1014.1
20260503220212 14 253 4.8 0.0 0.00 0.00 0.00 53 1014.0
20260503213210 14 253 6.4 0.0 0.00 0.00 0.00 53 1013.7
20260503210211 14 250 8.0 0.0 0.00 0.00 0.00 53 1013.2
20260503203209 15 209 12.9 0.0 0.00 0.00 0.00 50 1013.2
20260503200211 16 263 17.7 0.0 0.00 0.00 0.00 46 1012.9
20260503193210 16 239 19.3 0.0 0.00 0.00 0.00 45 1012.7
20260503190210 17 254 20.9 0.0 0.00 0.00 0.00 43 1012.2
20260503183209 18 253 30.6 0.0 0.00 0.00 0.00 46 1011.7
20260503180210 20 321 14.5 0.0 0.00 0.00 0.00 46 1011.2
20260503173209 20 335 14.5 0.0 0.00 0.00 0.00 44 1011.0
20260503170211 21 252 16.1 0.0 0.00 0.00 0.00 42 1010.7